Wind_Speed
19 20 21 19 20 23 25 28 32 30 31 34 35 35 38 38 37 41 47 49 54 51 50 49 50 52 54 53 51 49 48 49 53 52 51 50 44 43 43 40 40 38 34
25 26 26 27 25 26 28 30 31 31 34 34 35 37 39 36 37 40 40 43 45 46 49 52 51 50 48 47 46 47 48 45 46 52 51 51 50 42 42 41 38 38 36
24 27 28 27 26 27 27 28 32 31 34 33 35 35 36 38 39 42 45 45 47 49 49 48 47 46 45 46 47 47 45 46 47 49 51 53 53 49 44 41 38 36 38
20 21 21 24 25 24 27 28 31 33 31 31 33 38 41 43 45 45 45 45 45 44 44 44 44 45 47 47 46 46 46 46 47 49 50 50 44 37 35 36 37 35 35
15 19 22 23 23 25 27 28 28 28 32 36 40 42 45 47 47 45 42 42 43 42 42 43 44 44 43 43 44 44 44 46 47 44 39 35 34 34 30 33 32 33 32
17 19 21 22 22 23 23 25 29 32 36 40 44 46 46 44 43 42 42 43 43 44 44 43 43 44 42 42 41 42 44 44 40 34 30 30 29 31 25 20 24 27 32
17 18 18 19 20 22 25 27 30 35 39 41 42 41 40 40 40 40 42 43 42 42 42 43 43 42 40 39 38 38 37 32 32 33 31 28 33 31 31 28 27 31 36
13 12 13 16 19 22 26 30 33 35 35 35 36 35 36 37 38 38 39 39 40 40 38 37 37 36 34 35 35 32 25 30 33 29 26 28 30 30 28 30 34 38 39
10 12 15 18 22 26 30 33 33 31 30 30 31 32 32 33 35 36 36 36 35 33 30 30 33 33 32 31 32 32 27 28 23 22 19 21 17 23 26 33 38 46 50
12 14 18 22 25 29 30 30 29 27 26 27 28 29 30 32 32 32 33 33 34 34 29 27 28 29 29 30 34 30 28 26 24 19 17 19 25 26 33 37 46 52 48
14 18 22 25 27 27 26 23 23 23 24 25 26 29 31 33 33 33 34 35 36 36 34 32 31 28 26 31 31 26 26 23 9 15 18 19 23 26 35 38 47 52 48
17 21 24 25 24 23 21 20 21 22 24 26 27 28 30 32 33 34 33 33 34 35 33 30 30 28 31 29 20 12 13 11 11 19 21 23 23 31 38 41 53 41 41
19 23 22 22 20 20 20 21 22 24 25 25 26 29 30 30 30 31 32 32 31 30 29 22 25 24 20 22 25 19 14 12 16 21 23 26 27 35 43 44 46 31 27
22 21 19 18 18 20 21 23 24 24 24 27 28 28 26 28 30 30 28 28 26 21 15 20 19 26 21 22 10 11 11 16 18 22 25 28 32 33 41 48 52 32 18
20 17 17 17 19 20 21 22 23 23 24 26 28 28 26 27 32 33 31 32 24 15 15 21 25 25 21 18 9 13 14 17 20 23 26 28 31 33 37 45 51 32 21
16 16 16 17 18 20 21 21 21 23 25 27 27 26 26 29 32 31 31 32 21 20 18 26 24 24 9 7 7 9 13 19 24 28 26 27 30 33 35 41 49 47 27
17 16 14 16 18 18 19 20 21 23 24 25 26 26 26 27 32 28 27 19 24 21 20 27 23 19 12 8 12 18 22 25 27 27 25 26 29 29 31 37 45 49 33
17 14 13 15 17 17 18 17 19 20 22 24 25 26 26 23 27 22 22 16 22 24 27 25 22 16 13 18 19 23 25 26 25 24 24 25 27 26 27 31 40 47 49
15 12 13 15 15 16 16 16 17 18 19 20 22 23 24 23 25 24 22 21 20 21 25 26 20 15 18 18 22 23 23 24 24 23 24 24 24 24 23 27 31 39 45
12 12 15 15 15 15 14 14 16 17 17 17 17 18 20 21 19 20 20 20 20 22 21 21 21 21 21 20 20 21 21 22 23 24 24 24 25 24 24 23 26 32 38
12 14 15 14 16 15 13 13 14 15 15 15 15 16 17 17 18 18 18 18 18 20 20 20 20 20 19 20 20 21 21 22 22 23 24 25 25 24 24 24 23 24 28
13 14 13 15 15 14 12 12 13 13 13 13 13 14 15 16 16 16 17 17 18 18 19 20 20 20 20 19 20 21 22 22 22 23 24 24 24 25 25 24 22 21 21
15 12 13 15 15 13 11 12 12 11 10 10 10 11 12 13 13 14 15 16 17 18 19 20 21 21 21 21 21 21 21 22 23 24 24 25 25 26 25 25 23 21 20
12 12 13 14 13 12 11 12 11 9 9 8 8 8 9 10 11 13 14 15 17 18 19 20 21 22 23 23 22 22 22 22 22 23 23 24 24 25 25 24 23 21 19
12 12 13 13 12 11 11 12 10 9 8 7 7 7 7 9 10 12 13 15 16 17 18 19 20 21 21 22 23 24 24 24 24 24 24 24 24 24 23 23 23 22 19
12 13 13 13 11 11 12 11 10 9 8 7 6 7 7 8 10 12 13 14 16 17 18 19 20 21 22 21 22 23 23 23 23 22 22 23 23 23 23 23 22 22 22
Wind_Direction
278 278 274 283 277 280 284 286 283 302 306 302 301 303 301 302 299 290 286 286 289 294 297 296 296 297 298 299 299 299 301 302 302 304 305 304 304 301 298 295 293 287 279
276 275 269 271 280 289 284 285 289 299 305 299 298 300 302 302 300 300 298 295 293 294 293 295 296 297 298 299 300 300 301 301 300 301 301 301 300 299 297 296 290 288 283
259 265 270 268 276 285 287 293 295 297 301 292 295 299 299 297 295 292 292 293 292 294 297 298 300 301 302 303 302 302 303 302 301 299 300 301 299 297 293 289 288 282 282
257 266 270 276 284 289 294 296 298 297 297 298 295 294 296 296 295 294 295 297 300 300 300 301 303 304 304 303 304 305 304 304 303 303 301 300 303 301 300 290 280 283 284
264 268 274 280 285 291 295 296 297 299 297 297 299 300 299 299 301 302 302 302 304 305 305 305 304 305 306 306 306 305 306 306 304 303 301 300 304 307 303 296 287 281 279
266 276 282 286 291 293 294 296 299 301 302 302 301 302 303 303 305 305 306 306 305 304 304 305 305 305 306 305 304 306 308 306 301 300 298 300 298 304 299 293 294 293 289
263 271 277 284 289 292 295 299 303 304 301 299 299 300 300 301 303 303 302 300 300 301 302 301 302 303 303 303 305 305 302 298 301 297 294 295 301 305 307 302 295 289 287
261 270 280 283 291 301 306 306 302 298 296 296 298 299 300 299 297 296 295 296 298 300 301 303 301 301 305 305 302 304 308 304 305 301 302 305 302 307 297 295 299 296 291
278 286 296 299 302 303 303 302 301 301 300 300 299 299 299 297 298 301 302 302 301 302 304 305 304 305 307 306 312 313 309 303 307 313 308 326 330 327 324 318 312 307 298
292 302 304 304 304 305 305 305 304 303 303 304 305 306 306 307 310 309 308 307 306 306 312 309 310 314 307 307 308 309 302 301 310 307 317 318 320 316 320 315 313 316 297
295 304 309 306 306 307 307 307 306 308 309 313 315 315 315 314 312 311 312 312 310 312 315 316 316 315 316 316 322 312 303 303 333 328 331 323 325 323 318 306 314 320 304
304 312 307 307 309 310 311 313 314 317 321 321 320 319 317 317 318 317 316 313 312 311 313 316 316 317 320 326 324 290 317 334 334 337 327 327 331 333 330 320 328 320 304
311 308 307 312 315 316 317 321 327 328 325 325 327 326 325 326 325 323 319 315 311 306 310 319 320 316 318 325 317 308 337 350 341 333 332 330 338 344 339 335 343 325 304
307 305 313 317 318 319 324 328 328 328 331 333 333 330 330 330 329 329 329 328 313 308 309 321 329 325 323 320 324 350 360 341 334 331 331 336 338 342 344 344 351 357 333
300 312 316 318 322 324 328 328 328 330 333 334 333 332 336 338 340 335 334 337 338 310 324 330 332 331 324 320 342 342 5 338 329 328 328 331 337 341 346 346 357 8 3
307 315 316 321 321 323 327 327 328 333 336 336 335 338 339 343 342 341 340 337 344 339 318 334 321 324 340 20 6 358 344 335 335 334 331 330 336 341 347 349 356 4 25
311 307 316 320 319 321 325 329 333 335 337 338 340 341 343 347 344 345 344 9 357 354 330 356 338 351 360 16 1 348 345 341 339 342 340 333 339 344 348 357 357 7 27
298 301 318 316 314 320 325 329 331 336 339 340 345 348 349 355 357 353 351 8 7 2 354 350 346 353 356 1 350 339 341 342 343 345 346 346 350 352 355 0 2 8 12
286 308 311 307 312 319 321 325 332 338 339 348 352 352 355 352 3 5 358 6 2 358 2 9 11 1 357 348 344 348 352 351 352 354 356 357 359 360 359 7 9 10 16
292 300 299 303 314 312 315 322 333 334 341 353 358 1 5 8 359 5 12 11 8 7 12 6 16 18 16 10 4 7 6 5 6 7 7 7 4 7 6 8 9 13 17
285 288 293 306 308 309 311 321 329 329 342 350 358 7 13 16 18 23 21 21 21 17 17 18 23 20 16 12 10 10 10 9 8 9 11 12 15 14 14 10 9 18 16
275 280 294 302 304 303 306 319 319 326 336 343 357 6 14 18 19 22 22 22 21 20 21 21 21 19 17 14 13 11 10 10 9 11 12 14 16 16 19 19 16 16 18
266 280 292 297 296 294 303 306 306 319 327 338 351 360 12 14 18 21 22 21 20 18 16 15 13 10 8 6 7 8 6 4 3 5 6 8 10 13 14 16 19 19 15
265 277 286 292 289 291 295 293 296 309 319 332 337 352 359 4 8 12 14 13 12 12 11 8 6 5 4 5 6 5 5 5 5 4 3 4 5 6 7 8 13 16 16
265 278 286 287 286 289 287 284 288 298 306 314 321 329 342 348 354 0 3 3 2 2 1 1 1 2 2 3 2 0 1 2 2 2 4 5 7 8 7 6 3 6 12
270 278 284 286 289 284 280 279 284 290 294 299 309 312 324 337 344 348 351 352 352 353 355 356 358 358 360 2 1 360 359 359 359 359 0 2 3 5 7 9 11 10 6
Height
3212 3212 3211 3210 3208 3207 3206 3204 3201 3199 3196 3193 3191 3187 3184 3180 3174 3172 3169 3167 3164 3160 3159 3154 3149 3145 3140 3136 3130 3125 3120 3115 3105 3101 3098 3096 3097 3094 3091 3089 3084 3083 3083
3208 3207 3207 3204 3203 3202 3201 3198 3195 3193 3190 3187 3184 3180 3176 3172 3168 3164 3160 3158 3155 3151 3149 3144 3139 3133 3128 3124 3119 3114 3110 3106 3100 3091 3088 3086 3083 3084 3080 3077 3075 3071 3070
3202 3201 3201 3200 3198 3197 3194 3193 3190 3187 3183 3180 3177 3173 3169 3164 3160 3157 3154 3150 3146 3142 3137 3131 3126 3121 3116 3112 3107 3104 3100 3095 3091 3085 3078 3074 3070 3069 3068 3065 3063 3061 3059
3198 3196 3195 3194 3193 3191 3189 3186 3183 3180 3176 3173 3170 3166 3161 3156 3151 3147 3143 3139 3134 3130 3126 3121 3115 3111 3106 3101 3097 3093 3090 3085 3079 3074 3069 3063 3059 3057 3054 3052 3050 3050 3049
3193 3190 3190 3189 3187 3185 3183 3180 3177 3173 3170 3166 3161 3157 3152 3146 3140 3136 3132 3128 3123 3119 3116 3111 3106 3102 3097 3093 3088 3083 3079 3073 3068 3063 3059 3054 3050 3046 3044 3041 3038 3038 3038
3188 3186 3185 3184 3182 3180 3177 3175 3172 3168 3163 3158 3153 3148 3141 3135 3131 3127 3122 3118 3115 3111 3106 3102 3098 3093 3088 3083 3079 3076 3070 3062 3058 3054 3049 3046 3043 3039 3037 3031 3030 3028 3027
3184 3182 3181 3179 3177 3175 3172 3169 3165 3161 3155 3150 3145 3141 3135 3130 3126 3122 3118 3113 3109 3103 3099 3094 3089 3085 3080 3075 3072 3069 3065 3059 3053 3047 3043 3041 3037 3033 3029 3026 3024 3021 3018
3179 3178 3176 3175 3173 3170 3166 3162 3158 3153 3149 3143 3138 3134 3129 3125 3121 3117 3112 3107 3101 3097 3091 3086 3081 3076 3073 3068 3065 3062 3057 3053 3047 3042 3037 3033 3030 3027 3023 3019 3015 3009 3006
3174 3172 3171 3169 3167 3163 3159 3155 3150 3146 3142 3137 3132 3128 3124 3119 3114 3109 3104 3098 3093 3089 3085 3080 3073 3068 3065 3061 3055 3051 3049 3044 3039 3036 3033 3029 3025 3021 3017 3011 3006 2999 2992
3169 3167 3166 3164 3160 3156 3152 3148 3144 3139 3135 3131 3127 3122 3116 3111 3105 3100 3094 3089 3083 3080 3077 3072 3068 3061 3056 3052 3047 3043 3040 3038 3034 3031 3029 3025 3021 3018 3013 3006 2998 2984 2976
3165 3164 3162 3158 3154 3149 3146 3142 3138 3134 3130 3126 3120 3114 3108 3102 3096 3091 3086 3080 3074 3069 3065 3062 3059 3055 3051 3045 3039 3036 3034 3031 3030 3028 3024 3020 3017 3013 3006 2997 2987 2971 2957
3160 3158 3156 3151 3147 3143 3139 3135 3132 3127 3123 3118 3113 3108 3101 3096 3090 3084 3078 3072 3066 3061 3057 3054 3051 3048 3045 3040 3036 3032 3031 3028 3027 3024 3020 3016 3011 3005 2997 2988 2976 2959 2947
3153 3152 3148 3144 3140 3137 3133 3129 3125 3121 3117 3113 3108 3102 3096 3090 3085 3079 3073 3067 3062 3056 3052 3049 3046 3043 3039 3036 3032 3029 3027 3026 3023 3020 3016 3012 3006 3000 2991 2978 2966 2948 2940
3148 3145 3141 3137 3134 3132 3129 3125 3121 3116 3112 3107 3103 3097 3092 3087 3081 3074 3068 3063 3056 3052 3049 3046 3042 3038 3034 3032 3029 3027 3025 3024 3021 3017 3013 3009 3003 2997 2988 2975 2959 2943 2933
3142 3137 3135 3133 3130 3127 3124 3120 3116 3112 3108 3104 3099 3094 3090 3085 3077 3069 3062 3057 3052 3047 3044 3042 3038 3034 3030 3027 3027 3025 3024 3022 3019 3015 3010 3005 3000 2994 2985 2973 2959 2943 2932
3135 3132 3131 3128 3126 3122 3119 3116 3113 3108 3104 3100 3096 3091 3085 3079 3073 3066 3058 3052 3048 3046 3044 3040 3036 3031 3028 3026 3026 3024 3023 3020 3017 3011 3006 3001 2996 2989 2981 2972 2961 2945 2933
3129 3128 3125 3123 3122 3119 3115 3112 3108 3105 3102 3098 3092 3087 3082 3076 3069 3062 3056 3052 3049 3044 3043 3038 3032 3029 3027 3025 3025 3023 3021 3017 3013 3007 3002 2998 2993 2987 2980 2972 2962 2950 2934
3126 3123 3120 3119 3118 3115 3112 3109 3107 3104 3100 3096 3090 3083 3079 3074 3067 3061 3058 3051 3048 3046 3042 3036 3033 3029 3028 3026 3025 3022 3018 3014 3010 3005 3001 2996 2990 2984 2980 2973 2963 2953 2940
3120 3117 3117 3116 3114 3111 3109 3107 3104 3101 3098 3093 3087 3081 3076 3071 3067 3062 3058 3053 3050 3046 3042 3038 3033 3031 3029 3027 3024 3020 3016 3012 3008 3004 2999 2994 2990 2985 2979 2974 2968 2959 2949
3112 3112 3113 3112 3110 3108 3106 3103 3100 3098 3095 3090 3086 3082 3077 3071 3067 3063 3059 3055 3051 3048 3043 3040 3036 3032 3029 3027 3024 3021 3017 3013 3008 3004 2999 2994 2989 2984 2979 2974 2969 2963 2955
3108 3109 3108 3106 3106 3105 3102 3099 3096 3095 3091 3088 3084 3080 3077 3072 3069 3064 3061 3058 3054 3050 3047 3043 3039 3035 3032 3029 3025 3022 3018 3014 3009 3005 3000 2996 2991 2986 2980 2976 2972 2968 2962
3105 3106 3103 3102 3101 3100 3097 3094 3093 3091 3088 3086 3082 3079 3075 3072 3069 3066 3062 3060 3056 3053 3049 3045 3041 3038 3035 3031 3027 3023 3019 3015 3011 3006 3002 2997 2993 2988 2984 2979 2975 2971 2967
3102 3100 3099 3098 3096 3095 3093 3092 3090 3087 3085 3083 3080 3079 3074 3072 3070 3066 3063 3060 3057 3054 3050 3046 3043 3039 3036 3032 3028 3024 3020 3015 3011 3006 3002 2998 2993 2989 2985 2981 2977 2973 2969
3096 3095 3094 3093 3092 3091 3089 3089 3087 3084 3082 3080 3080 3077 3076 3073 3069 3066 3063 3061 3057 3054 3050 3047 3044 3040 3036 3031 3028 3024 3021 3016 3012 3007 3003 2998 2994 2990 2986 2982 2979 2975 2972
3091 3091 3091 3090 3088 3086 3085 3085 3083 3081 3078 3076 3076 3075 3072 3072 3069 3065 3062 3059 3057 3054 3050 3047 3044 3040 3036 3032 3028 3023 3019 3016 3012 3007 3003 2999 2995 2991 2987 2983 2979 2976 2973
3087 3087 3086 3085 3083 3083 3083 3081 3079 3077 3076 3075 3072 3074 3071 3069 3067 3064 3061 3058 3056 3053 3050 3046 3043 3039 3035 3032 3028 3024 3020 3015 3011 3008 3004 3000 2996 2992 2988 2984 2980 2976 2973